SCP
-0 -0 0 0 0 0 0 0 0 -0 0 0 0 0 0 0 0 0 -0 -0 0 0 0 0 0 0 0 0 0 0 0 0 0 0 0 0 0 0 0 0 0 0 0 0 0 0 0 0 0
0 0 -0 0 0 0 0 0 0 0 0 0 0 0 0 0 0 0 0 0 0 0 0 0 0 0 0 0 0 0 0 0 0 0 0 0 0 0 0 0 0 0 0 0 0 0 0 0 0
0 0 0 0 0 0 0 0 0 0 0 0 0 0 0 0 0 0 0 0 0 0 0 0 0 0 0 0 0 0 0 0 0 0 0 0 0 0 0 0 0 0 0 0 0 0 0 0 0
0 0 0 0 0 0 0 0 0 0 0 0 0 0 0 0 0 0 0 0 0 0 0 0 0 0 0 0 0 0 0 0 0 0 0 0 0 0 0 0 0 0 0 0 0 0 0 0 0
0 0 0 0 0 0 0 0 0 0 0 0 0 0 0 0 0 0 0 0 0 0 0 0 0 0 0 0 0 0 0 0 0 0 0 0 0 0 0 0 0 0 0 0 0 0 0 0 0
0 0 0 0 0 0 0 0 0 0 0 0 0 0 0 0 0 0 0 0 0 0 0 0 0 0 0 0 0 0 0 0 0 0 0 0 0 0 0 0 0 0 0 0 0 0 0 0 0
-0 0 0 0 0 0 0 -0 0 0 0 0 0 0 0 -0 0 0 0 0 0 0 0 0 0 0 0 0 0 0 0 0 0 0 0 0 0 0 0 0 0 0 0 0 0 0 0 0 0
0 0 -0 -0 -0 -0 -0 0 -0 -0 -0 0 0 0 0 0 0 -0 -0 0 0 0 0 0 0 0 0 0 0 0 0 0 0 0 0 0 0 0 0 0 0 0 0 0 0 0 0 0 0
-0 -0 0 0 -0 0 -0 -0 -0 -0 0 0 -0 -0 -0 0 0 0 0 0 0 0 0 0 0 0 0 0 0 0 0 0 0 0 0 0 0 0 0 0 0 0 0 0 0 0 0 0 0
-0 0 -0 -0 -0 -0 -0 -0 -0 0 0 -0 -0 0 0 0 0 0 0 0 0 0 0 0 0 0 0 0 0 0 0 0 0 0 0 0 0 0 0 0 0 0 0 0 0 0 0 0 0
0 0 -0 -0 -0 -0 -0 -0 -0 -0 -0 0 -0 0 0 0 0 0 0 0 0 0 0 0 0 0 0 0 0 0 0 0 0 0 0 0 0 0 0 0 0 0 0 0 0 0 0 0 0
0 0 0 -0 -0 -0 -0 -0 -0 -0 0 0 0 0 0 0 0 0 0 0 0 0 0 0 0 0 0 0 0 0 0 0 0 0 0 0 0 0 0 0 0 0 0 0 0 0 0 0 0
0 -0 -0 -0 -0 -0 -0 0 -0 0 0 0 0 0 0 0 0 0 0 0 0 0 0 0 0 0 0 0 0 0 0 0 0 0 0 0 0 0 0 0 0 0 0 0 0 0 0 0 0
-0 -0 -0 -0 -0 -0 0 0 0 0 0 0 0 0 0 0 0 0 0 0 0 0 0 0 0 0 0 0 0 0 0 0 0 0 0 0 0 0 0 0 0 0 0 0 0 0 0 0 0
0 -0 -0 -0 -0 0 -0 0 0 0 0 0 0 0 0 0 0 0 0 0 0 0 0 0 0 0 0 0 -0 0 0 0 0 -0 0 0 0 0 0 0 0 0 0 0 0 0 0 0 0
0 0 0 0 0 0 0 0 0 0 0 0 0 0 0 0 0 0 0 0 0 0 0 0 0 0 0 0 0 0 -0 0 0 0 -0 -0 0 0 0 0 0 0 0 0 0 0 0 0 0
0 0 0 0 0 0 0 0 0 0 0 0 0 0 0 0 0 0 0 0 0 0 0 0 0 0 0 0 0 0 0 -0 0 0 -0 -0 -0 0 0 0 0 0 0 0 0 0 0 0 0
0 0 0 0 0 0 0 0 0 0 0 0 0 0 0 0 0 0 0 0 0 0 0 0 0 0 0 0 0 0 0 0 0 -0 -0 -0 -0 -0 0 0 0 0 0 0 0 0 0 0 0
0 0 0 0 0 0 0 0 0 0 0 0 0 0 0 0 0 0 0 0 0 0 0 0 0 0 0 0 0 0 0 0 0 0 -0 -0 -0 -0 -0 -0 0 0 0 0 0 0 0 0 0
0 0 0 0 0 0 0 0 0 0 0 0 0 0 0 0 0 0 0 0 0 0 0 0 0 0 0 0 0 0 0 0 0 0 0 0 -0 -0 -0 -0 -0 0 0 0 0 0 0 0 0
0 0 0 0 0 0 0 0 0 0 0 0 0 0 0 0 0 0 0 0 0 0 0 0 0 0 0 0 0 0 0 0 0 0 0 0 0 -0 -0 -0 -0 -0 -0 0 0 0 0 0 0
0 0 0 0 0 0 0 0 0 0 0 0 0 0 0 0 0 0 0 0 0 0 0 0 0 0 0 0 0 0 0 0 0 0 0 0 0 0 0 -0 -0 -0 -0 0 0 0 0 0 0
0 0 0 0 0 0 0 0 0 0 0 0 0 0 0 0 0 0 0 0 0 0 0 0 0 0 0 0 0 0 0 0 0 0 0 0 0 0 0 0 -0 -0 -0 -0 0 0 0 0 0
0 0 0 0 0 0 0 0 0 0 0 0 0 0 0 0 0 0 0 0 0 0 0 0 0 0 0 0 0 0 0 0 0 0 0 0 0 0 0 0 0 -0 0 -0 -0 0 0 0 0
0 0 0 0 0 0 0 0 0 0 0 0 0 0 0 0 0 0 0 0 0 0 0 0 0 0 0 0 0 0 0 0 0 0 0 0 0 0 0 0 0 0 0 0 0 -0 0 0 0
0 0 0 0 0 0 0 0 0 0 0 0 0 0 0 0 0 0 0 0 0 0 0 0 0 0 0 0 0 0 0 0 0 0 0 0 0 0 0 0 0 0 0 0 0 0 -0 0 0
0 0 0 0 0 0 0 0 0 0 0 0 0 0 0 0 0 0 0 0 0 0 0 0 0 0 0 0 0 0 0 0 0 0 0 0 0 0 0 0 0 0 0 0 -0 0 -0 -0 0
0 0 0 0 0 0 0 0 0 0 0 0 0 0 0 0 0 0 0 0 0 0 0 0 0 0 0 0 0 0 0 0 0 0 0 0 0 0 0 0 0 0 0 0 -0 0 -0 -0 0
0 0 0 0 0 0 0 0 0 0 0 0 0 0 0 0 0 0 0 0 0 0 0 0 0 0 0 0 0 0 0 0 0 0 0 0 0 0 0 0 0 0 0 -0 -0 -0 0 -0 0
0 0 0 0 0 0 0 0 0 0 0 0 0 0 0 0 0 0 0 0 0 0 0 0 0 0 0 0 0 0 0 0 0 0 0 0 0 0 0 0 0 0 0 0 0 0 0 0 -0
Wind_Speed_500mb
24 21 17 9 8 10 6 7 7 11 8 14 12 16 29 26 9 12 22 38 29 26 22 25 16 18 18 17 18 23 24 23 21 21 15 15 14 13 13 17 21 25 28 22 20 28 25 25 21
23 22 9 5 8 6 4 11 18 9 3 8 14 18 20 9 27 13 41 39 33 24 24 25 24 23 20 20 21 22 22 22 20 22 17 16 16 16 17 17 27 25 30 31 15 17 35 30 26
20 17 10 6 4 6 7 11 12 26 51 32 14 36 14 24 28 19 28 32 31 26 27 29 31 22 24 23 25 25 26 23 22 23 21 18 18 20 21 22 27 31 29 32 17 16 30 32 31
11 4 6 7 7 14 12 4 19 24 36 44 20 20 19 36 17 30 24 22 28 21 25 30 25 23 22 27 30 31 29 27 27 28 25 23 23 23 22 24 26 28 31 30 23 21 23 29 33
3 4 4 4 9 6 6 29 34 13 13 35 24 2 13 16 26 20 26 26 27 31 25 23 29 31 31 29 33 35 35 33 33 34 32 29 25 23 23 22 26 28 26 25 28 29 26 27 30
3 2 6 2 9 2 11 39 32 31 22 26 29 4 13 28 40 50 39 27 26 27 32 30 27 31 33 38 37 40 39 39 39 40 40 36 30 28 26 25 24 28 29 28 30 31 28 32 31
6 7 6 6 7 8 11 21 35 14 20 16 29 10 6 29 59 58 53 29 17 11 16 20 23 32 41 36 39 42 45 43 44 45 46 44 37 35 32 30 28 28 31 34 34 35 35 37 34
3 7 3 12 9 7 18 11 33 30 7 24 27 13 16 57 54 51 46 40 20 17 10 12 20 28 35 40 41 39 44 47 48 51 51 51 47 47 42 36 34 32 33 34 35 38 35 37 36
3 7 4 9 8 2 24 15 20 11 17 18 22 26 30 36 39 38 42 38 33 22 23 23 22 22 25 34 39 48 43 43 49 54 58 58 59 56 51 45 41 38 37 38 38 39 38 39 39
13 9 6 6 4 5 12 10 15 13 19 19 39 32 36 39 45 46 47 50 48 42 34 33 33 30 32 31 33 41 50 52 50 50 61 65 67 63 61 54 48 45 44 45 44 43 43 43 41
11 7 12 12 12 11 11 13 18 11 6 14 27 37 39 40 40 44 44 43 40 32 32 32 33 35 37 41 39 37 45 46 56 61 59 70 73 72 73 63 63 54 53 51 50 46 49 48 45
13 25 13 6 10 3 8 14 13 9 2 13 15 19 26 29 34 37 41 45 46 37 36 38 39 42 37 38 42 38 38 39 51 66 72 71 81 80 81 75 71 64 64 58 54 54 54 52 48
13 9 14 10 18 8 13 12 8 6 6 9 10 14 21 22 32 34 37 39 46 49 45 43 43 45 49 42 42 45 46 46 48 50 63 81 81 88 83 83 86 76 72 69 63 60 57 58 55
12 18 10 8 15 8 12 13 16 10 5 5 7 13 21 23 29 35 44 45 47 50 53 51 45 44 46 48 48 48 55 56 58 62 49 75 83 78 94 92 91 88 82 75 73 65 61 59 59
14 7 3 6 14 3 25 7 13 16 5 6 8 13 19 25 23 30 35 44 48 52 53 53 58 59 52 47 49 51 54 57 57 55 59 54 49 82 90 98 96 93 92 85 81 74 61 62 60
5 7 7 1 14 5 10 14 9 17 11 10 9 14 19 24 24 30 33 40 44 52 55 56 59 59 60 62 55 52 55 55 57 55 57 57 43 41 20 59 97 98 96 94 91 81 74 70 66
14 3 4 12 4 7 9 16 17 16 15 20 16 17 20 23 25 25 29 33 41 45 50 54 58 61 60 61 67 68 60 57 58 62 61 59 69 55 36 35 27 95 100 102 100 95 85 80 74
4 5 7 8 10 6 12 38 27 57 45 41 23 19 17 23 25 28 33 35 40 44 49 56 60 62 66 70 70 72 74 66 60 62 67 69 67 73 77 65 54 25 78 101 108 103 97 90 85
5 4 6 9 5 14 7 28 37 41 42 33 30 25 21 23 24 30 35 37 41 43 51 58 61 65 70 75 79 80 83 80 70 63 65 73 72 71 78 91 88 50 29 21 82 116 111 100 86
3 1 7 14 6 9 16 37 36 29 29 44 36 28 27 26 26 32 38 44 47 49 59 60 64 68 69 75 77 77 80 80 80 72 68 71 72 78 76 84 98 94 75 61 44 78 103 102 105
3 2 1 9 17 9 14 16 12 5 20 21 33 30 27 28 33 35 39 46 47 51 66 70 72 72 74 80 82 86 85 84 83 82 78 71 71 75 75 78 78 99 99 92 50 39 101 99 107
2 5 3 10 10 6 9 10 12 8 7 14 31 30 32 28 29 34 42 55 47 56 70 69 73 76 79 80 83 80 86 86 84 84 82 77 71 69 77 74 74 74 102 105 101 81 73 90 106
2 4 4 2 3 8 3 4 16 4 9 16 33 35 32 26 24 37 50 50 51 65 63 68 71 77 81 79 81 78 89 81 83 84 86 85 83 76 75 74 70 62 60 96 117 119 98 58 106
7 6 4 3 4 5 8 6 13 8 11 8 21 31 25 20 34 46 51 59 57 58 63 66 71 76 75 79 77 78 90 71 78 86 88 90 85 85 76 74 71 64 64 76 114 121 114 54 74
6 7 7 10 7 8 5 5 22 9 9 13 17 22 21 23 37 51 53 57 59 60 63 66 71 73 76 78 91 75 62 67 78 86 90 85 84 84 84 77 77 66 60 63 70 91 108 93 62
4 6 8 9 5 9 10 13 12 12 20 16 19 18 15 20 42 43 49 59 56 59 62 68 74 81 87 89 69 62 64 71 79 84 81 78 81 87 85 79 73 73 71 80 67 79 83 100 89
3 3 3 7 4 5 8 16 20 15 16 4 8 12 17 39 43 41 54 60 56 59 66 74 80 83 83 78 68 66 66 78 81 76 78 77 75 78 77 77 79 79 76 75 69 81 82 96 91
1 8 6 5 2 9 10 12 19 9 11 12 14 21 28 38 43 50 58 55 58 60 68 76 80 80 75 72 66 75 80 67 57 63 67 65 68 68 69 72 74 77 79 74 75 81 77 79 86
2 1 7 5 8 8 7 13 13 13 14 15 22 20 33 37 49 54 54 56 57 64 72 80 84 76 72 69 78 76 70 61 55 57 57 59 66 76 81 78 77 77 82 80 76 82 87 71 80
2 8 11 8 10 7 3 19 12 13 14 18 18 31 33 58 52 48 59 55 62 69 74 80 78 74 73 73 67 67 65 63 57 58 64 67 70 74 76 75 75 74 74 72 70 85 83 79 71
Wind_Direction_500mb
355 350 325 350 50 67 10 38 41 33 44 3 350 80 105 53 59 90 350 5 339 290 299 310 294 243 234 227 229 233 240 248 253 258 251 248 246 245 233 212 206 185 168 185 196 208 198 191 196
357 349 5 355 86 98 71 326 24 19 56 347 348 79 39 73 42 46 13 10 350 320 306 307 310 252 241 235 230 240 248 255 258 257 262 251 248 243 241 234 224 221 201 200 184 201 196 198 197
338 332 348 82 84 110 106 331 2 13 39 31 7 62 55 337 29 11 12 23 12 343 314 313 314 257 246 243 241 241 247 252 251 257 268 252 261 252 254 246 232 229 225 216 201 216 195 198 199
346 14 279 78 133 349 128 330 25 21 17 30 72 77 92 43 32 8 13 32 10 9 315 310 307 304 273 253 248 248 248 246 243 254 255 260 268 256 258 260 247 231 218 213 208 220 202 196 202
49 320 17 311 73 84 34 25 57 48 32 16 54 57 96 8 350 355 15 25 23 356 326 304 301 302 297 283 263 252 251 248 245 248 247 255 261 258 259 261 260 244 221 209 198 223 219 199 203
62 3 36 31 69 219 24 20 46 28 14 21 2 61 106 354 343 340 343 360 19 7 1 328 308 292 296 291 286 263 253 252 249 248 244 244 251 255 263 263 260 248 227 212 211 222 222 205 207
113 85 227 295 179 44 14 358 44 37 7 1 352 360 240 321 341 333 334 332 330 14 356 358 336 315 302 292 283 276 261 256 253 249 244 242 247 248 256 263 261 250 240 230 216 222 224 213 212
182 110 258 19 341 79 3 21 24 31 347 355 21 24 347 340 332 331 328 326 287 289 320 340 359 332 320 300 287 280 272 267 260 249 242 243 244 244 252 255 259 257 240 226 223 226 224 218 217
46 69 36 356 34 68 7 27 10 10 16 77 33 22 358 353 349 345 354 357 353 294 292 306 323 325 307 307 295 276 273 270 264 259 244 242 242 245 248 251 254 255 252 240 228 233 228 223 226
56 71 86 9 36 13 352 59 359 13 38 3 351 4 3 6 8 11 5 358 356 1 351 330 308 305 306 302 311 303 270 262 265 260 253 244 245 245 246 252 250 252 250 249 247 233 234 227 229
42 89 155 47 36 25 10 25 355 11 39 17 351 349 354 4 9 9 10 13 9 8 0 356 337 325 309 304 305 311 303 294 257 262 258 248 247 247 243 242 250 247 248 247 249 239 233 236 232
96 46 86 63 33 57 6 330 341 16 131 343 354 346 347 353 3 360 4 6 16 13 355 339 330 325 321 309 305 302 298 310 291 256 257 258 248 244 245 246 247 243 249 247 245 249 250 245 241
76 123 77 91 36 63 351 311 301 254 287 1 350 334 338 346 350 348 354 359 359 3 9 8 359 353 350 325 311 306 298 290 303 300 273 255 255 249 243 244 251 247 241 247 248 244 246 248 245
114 116 119 64 25 98 1 290 330 206 244 26 345 324 320 342 342 335 341 347 350 352 354 354 355 349 346 345 336 320 308 304 295 291 303 273 251 256 251 245 246 248 244 243 248 248 244 245 243
129 88 117 21 349 25 337 270 219 186 237 327 339 306 303 327 325 330 329 333 337 342 346 351 350 348 343 335 327 328 324 319 306 303 296 278 269 248 255 253 247 244 244 245 247 247 245 243 240
109 57 43 340 1 10 39 279 216 201 252 277 294 305 301 314 319 325 322 325 329 332 338 341 340 344 342 341 341 326 316 313 311 306 298 293 283 257 239 254 249 246 243 241 243 243 241 244 238
7 134 24 331 78 320 68 272 256 191 273 252 274 285 302 309 316 322 321 321 322 327 332 334 335 335 337 338 335 332 327 317 307 308 304 300 290 289 264 313 277 246 243 243 238 240 238 242 237
337 23 339 278 336 331 262 262 261 267 273 248 250 267 285 297 310 316 317 319 322 325 329 331 331 333 333 335 332 327 324 320 318 311 307 305 305 296 281 287 308 289 238 245 239 237 237 238 241
100 48 297 264 38 345 260 282 276 262 261 243 226 237 261 283 299 305 315 320 320 325 330 331 332 332 331 331 332 330 326 321 317 313 312 309 308 309 300 281 289 297 287 293 239 240 234 229 235
95 354 309 295 353 347 301 288 285 252 234 231 221 228 258 271 288 302 318 319 322 326 330 331 333 330 329 328 328 327 324 318 315 313 311 311 312 312 312 299 284 278 289 291 313 236 224 225 232
26 249 32 242 319 272 294 291 319 357 201 214 208 240 259 262 292 304 309 314 317 319 330 331 330 329 330 328 326 326 322 316 312 313 310 308 308 306 307 307 300 270 280 284 288 331 217 221 221
233 53 357 314 17 291 38 281 308 279 217 203 217 241 256 260 279 297 315 323 315 317 324 326 325 325 328 326 323 322 322 313 309 307 307 306 305 303 303 307 299 294 275 278 276 292 298 231 213
190 356 251 269 337 353 309 65 270 96 257 244 239 243 238 261 283 308 321 320 312 316 320 323 322 322 324 322 322 318 318 310 307 306 306 307 304 301 300 301 299 290 283 271 275 280 283 257 213
295 311 103 38 68 20 257 133 279 207 213 215 231 217 229 267 307 313 313 323 320 318 321 323 322 323 322 319 316 311 315 307 304 303 303 303 301 300 297 298 299 287 290 273 266 278 270 298 244
30 46 341 352 3 234 330 318 248 240 219 197 201 229 258 303 313 314 320 323 320 322 324 327 327 321 319 316 312 315 309 304 300 301 302 302 301 298 297 298 296 289 279 282 276 273 269 275 285
18 135 149 244 281 283 318 241 251 234 204 205 235 253 263 305 326 316 315 322 324 326 329 328 327 322 320 321 321 317 313 309 305 304 304 297 294 292 294 295 293 287 279 276 274 279 273 268 277
170 83 155 99 72 31 234 283 296 240 258 189 212 218 256 313 319 312 321 328 329 332 332 330 326 326 325 326 320 317 314 311 304 306 305 300 297 295 295 292 290 284 280 274 272 274 268 269 275
144 164 78 14 345 288 277 271 235 271 236 240 223 243 275 310 316 312 323 324 327 332 335 332 331 330 328 329 323 317 316 317 314 310 307 304 303 298 293 293 291 288 281 277 272 277 265 267 265
97 78 43 117 159 197 292 256 222 226 203 203 225 267 304 316 315 313 320 323 329 335 339 337 335 334 332 324 317 316 322 323 313 310 309 303 293 292 295 299 296 288 278 270 270 271 269 265 259
314 201 163 137 239 237 179 265 256 253 220 214 252 307 306 324 320 315 320 323 333 339 340 339 337 337 331 325 321 322 323 324 318 308 303 302 306 304 305 300 296 289 284 274 269 274 272 262 254
Wind_Speed_850mb
24 21 17 9 8 10 6 7 7 11 8 14 12 16 29 26 9 12 22 38 29 26 22 25 16 18 18 17 18 23 24 23 21 21 15 15 14 13 13 17 21 25 28 22 20 28 25 25 21
23 22 9 5 8 6 4 11 18 9 3 8 14 18 20 9 27 13 41 39 33 24 24 25 24 23 20 20 21 22 22 22 20 22 17 16 16 16 17 17 27 25 30 31 15 17 35 30 26
20 17 10 6 4 6 7 11 12 26 51 32 14 36 14 24 28 19 28 32 31 26 27 29 31 22 24 23 25 25 26 23 22 23 21 18 18 20 21 22 27 31 29 32 17 16 30 32 31
11 4 6 7 7 14 12 4 19 24 36 44 20 20 19 36 17 30 24 22 28 21 25 30 25 23 22 27 30 31 29 27 27 28 25 23 23 23 22 24 26 28 31 30 23 21 23 29 33
3 4 4 4 9 6 6 29 34 13 13 35 24 2 13 16 26 20 26 26 27 31 25 23 29 31 31 29 33 35 35 33 33 34 32 29 25 23 23 22 26 28 26 25 28 29 26 27 30
3 2 6 2 9 2 11 39 32 31 22 26 29 4 13 28 40 50 39 27 26 27 32 30 27 31 33 38 37 40 39 39 39 40 40 36 30 28 26 25 24 28 29 28 30 31 28 32 31
6 7 6 6 7 8 11 21 35 14 20 16 29 10 6 29 59 58 53 29 17 11 16 20 23 32 41 36 39 42 45 43 44 45 46 44 37 35 32 30 28 28 31 34 34 35 35 37 34
3 7 3 12 9 7 18 11 33 30 7 24 27 13 16 57 54 51 46 40 20 17 10 12 20 28 35 40 41 39 44 47 48 51 51 51 47 47 42 36 34 32 33 34 35 38 35 37 36
3 7 4 9 8 2 24 15 20 11 17 18 22 26 30 36 39 38 42 38 33 22 23 23 22 22 25 34 39 48 43 43 49 54 58 58 59 56 51 45 41 38 37 38 38 39 38 39 39
13 9 6 6 4 5 12 10 15 13 19 19 39 32 36 39 45 46 47 50 48 42 34 33 33 30 32 31 33 41 50 52 50 50 61 65 67 63 61 54 48 45 44 45 44 43 43 43 41
11 7 12 12 12 11 11 13 18 11 6 14 27 37 39 40 40 44 44 43 40 32 32 32 33 35 37 41 39 37 45 46 56 61 59 70 73 72 73 63 63 54 53 51 50 46 49 48 45
13 25 13 6 10 3 8 14 13 9 2 13 15 19 26 29 34 37 41 45 46 37 36 38 39 42 37 38 42 38 38 39 51 66 72 71 81 80 81 75 71 64 64 58 54 54 54 52 48
13 9 14 10 18 8 13 12 8 6 6 9 10 14 21 22 32 34 37 39 46 49 45 43 43 45 49 42 42 45 46 46 48 50 63 81 81 88 83 83 86 76 72 69 63 60 57 58 55
12 18 10 8 15 8 12 13 16 10 5 5 7 13 21 23 29 35 44 45 47 50 53 51 45 44 46 48 48 48 55 56 58 62 49 75 83 78 94 92 91 88 82 75 73 65 61 59 59
14 7 3 6 14 3 25 7 13 16 5 6 8 13 19 25 23 30 35 44 48 52 53 53 58 59 52 47 49 51 54 57 57 55 59 54 49 82 90 98 96 93 92 85 81 74 61 62 60
5 7 7 1 14 5 10 14 9 17 11 10 9 14 19 24 24 30 33 40 44 52 55 56 59 59 60 62 55 52 55 55 57 55 57 57 43 41 20 59 97 98 96 94 91 81 74 70 66
14 3 4 12 4 7 9 16 17 16 15 20 16 17 20 23 25 25 29 33 41 45 50 54 58 61 60 61 67 68 60 57 58 62 61 59 69 55 36 35 27 95 100 102 100 95 85 80 74
4 5 7 8 10 6 12 38 27 57 45 41 23 19 17 23 25 28 33 35 40 44 49 56 60 62 66 70 70 72 74 66 60 62 67 69 67 73 77 65 54 25 78 101 108 103 97 90 85
5 4 6 9 5 14 7 28 37 41 42 33 30 25 21 23 24 30 35 37 41 43 51 58 61 65 70 75 79 80 83 80 70 63 65 73 72 71 78 91 88 50 29 21 82 116 111 100 86
3 1 7 14 6 9 16 37 36 29 29 44 36 28 27 26 26 32 38 44 47 49 59 60 64 68 69 75 77 77 80 80 80 72 68 71 72 78 76 84 98 94 75 61 44 78 103 102 105
3 2 1 9 17 9 14 16 12 5 20 21 33 30 27 28 33 35 39 46 47 51 66 70 72 72 74 80 82 86 85 84 83 82 78 71 71 75 75 78 78 99 99 92 50 39 101 99 107
2 5 3 10 10 6 9 10 12 8 7 14 31 30 32 28 29 34 42 55 47 56 70 69 73 76 79 80 83 80 86 86 84 84 82 77 71 69 77 74 74 74 102 105 101 81 73 90 106
2 4 4 2 3 8 3 4 16 4 9 16 33 35 32 26 24 37 50 50 51 65 63 68 71 77 81 79 81 78 89 81 83 84 86 85 83 76 75 74 70 62 60 96 117 119 98 58 106
7 6 4 3 4 5 8 6 13 8 11 8 21 31 25 20 34 46 51 59 57 58 63 66 71 76 75 79 77 78 90 71 78 86 88 90 85 85 76 74 71 64 64 76 114 121 114 54 74
6 7 7 10 7 8 5 5 22 9 9 13 17 22 21 23 37 51 53 57 59 60 63 66 71 73 76 78 91 75 62 67 78 86 90 85 84 84 84 77 77 66 60 63 70 91 108 93 62
4 6 8 9 5 9 10 13 12 12 20 16 19 18 15 20 42 43 49 59 56 59 62 68 74 81 87 89 69 62 64 71 79 84 81 78 81 87 85 79 73 73 71 80 67 79 83 100 89
3 3 3 7 4 5 8 16 20 15 16 4 8 12 17 39 43 41 54 60 56 59 66 74 80 83 83 78 68 66 66 78 81 76 78 77 75 78 77 77 79 79 76 75 69 81 82 96 91
1 8 6 5 2 9 10 12 19 9 11 12 14 21 28 38 43 50 58 55 58 60 68 76 80 80 75 72 66 75 80 67 57 63 67 65 68 68 69 72 74 77 79 74 75 81 77 79 86
2 1 7 5 8 8 7 13 13 13 14 15 22 20 33 37 49 54 54 56 57 64 72 80 84 76 72 69 78 76 70 61 55 57 57 59 66 76 81 78 77 77 82 80 76 82 87 71 80
2 8 11 8 10 7 3 19 12 13 14 18 18 31 33 58 52 48 59 55 62 69 74 80 78 74 73 73 67 67 65 63 57 58 64 67 70 74 76 75 75 74 74 72 70 85 83 79 71
Wind_Direction_850mb
355 350 325 350 50 67 10 38 41 33 44 3 350 80 105 53 59 90 350 5 339 290 299 310 294 243 234 227 229 233 240 248 253 258 251 248 246 245 233 212 206 185 168 185 196 208 198 191 196
357 349 5 355 86 98 71 326 24 19 56 347 348 79 39 73 42 46 13 10 350 320 306 307 310 252 241 235 230 240 248 255 258 257 262 251 248 243 241 234 224 221 201 200 184 201 196 198 197
338 332 348 82 84 110 106 331 2 13 39 31 7 62 55 337 29 11 12 23 12 343 314 313 314 257 246 243 241 241 247 252 251 257 268 252 261 252 254 246 232 229 225 216 201 216 195 198 199
346 14 279 78 133 349 128 330 25 21 17 30 72 77 92 43 32 8 13 32 10 9 315 310 307 304 273 253 248 248 248 246 243 254 255 260 268 256 258 260 247 231 218 213 208 220 202 196 202
49 320 17 311 73 84 34 25 57 48 32 16 54 57 96 8 350 355 15 25 23 356 326 304 301 302 297 283 263 252 251 248 245 248 247 255 261 258 259 261 260 244 221 209 198 223 219 199 203
62 3 36 31 69 219 24 20 46 28 14 21 2 61 106 354 343 340 343 360 19 7 1 328 308 292 296 291 286 263 253 252 249 248 244 244 251 255 263 263 260 248 227 212 211 222 222 205 207
113 85 227 295 179 44 14 358 44 37 7 1 352 360 240 321 341 333 334 332 330 14 356 358 336 315 302 292 283 276 261 256 253 249 244 242 247 248 256 263 261 250 240 230 216 222 224 213 212
182 110 258 19 341 79 3 21 24 31 347 355 21 24 347 340 332 331 328 326 287 289 320 340 359 332 320 300 287 280 272 267 260 249 242 243 244 244 252 255 259 257 240 226 223 226 224 218 217
46 69 36 356 34 68 7 27 10 10 16 77 33 22 358 353 349 345 354 357 353 294 292 306 323 325 307 307 295 276 273 270 264 259 244 242 242 245 248 251 254 255 252 240 228 233 228 223 226
56 71 86 9 36 13 352 59 359 13 38 3 351 4 3 6 8 11 5 358 356 1 351 330 308 305 306 302 311 303 270 262 265 260 253 244 245 245 246 252 250 252 250 249 247 233 234 227 229
42 89 155 47 36 25 10 25 355 11 39 17 351 349 354 4 9 9 10 13 9 8 0 356 337 325 309 304 305 311 303 294 257 262 258 248 247 247 243 242 250 247 248 247 249 239 233 236 232
96 46 86 63 33 57 6 330 341 16 131 343 354 346 347 353 3 360 4 6 16 13 355 339 330 325 321 309 305 302 298 310 291 256 257 258 248 244 245 246 247 243 249 247 245 249 250 245 241
76 123 77 91 36 63 351 311 301 254 287 1 350 334 338 346 350 348 354 359 359 3 9 8 359 353 350 325 311 306 298 290 303 300 273 255 255 249 243 244 251 247 241 247 248 244 246 248 245
114 116 119 64 25 98 1 290 330 206 244 26 345 324 320 342 342 335 341 347 350 352 354 354 355 349 346 345 336 320 308 304 295 291 303 273 251 256 251 245 246 248 244 243 248 248 244 245 243
129 88 117 21 349 25 337 270 219 186 237 327 339 306 303 327 325 330 329 333 337 342 346 351 350 348 343 335 327 328 324 319 306 303 296 278 269 248 255 253 247 244 244 245 247 247 245 243 240
109 57 43 340 1 10 39 279 216 201 252 277 294 305 301 314 319 325 322 325 329 332 338 341 340 344 342 341 341 326 316 313 311 306 298 293 283 257 239 254 249 246 243 241 243 243 241 244 238
7 134 24 331 78 320 68 272 256 191 273 252 274 285 302 309 316 322 321 321 322 327 332 334 335 335 337 338 335 332 327 317 307 308 304 300 290 289 264 313 277 246 243 243 238 240 238 242 237
337 23 339 278 336 331 262 262 261 267 273 248 250 267 285 297 310 316 317 319 322 325 329 331 331 333 333 335 332 327 324 320 318 311 307 305 305 296 281 287 308 289 238 245 239 237 237 238 241
100 48 297 264 38 345 260 282 276 262 261 243 226 237 261 283 299 305 315 320 320 325 330 331 332 332 331 331 332 330 326 321 317 313 312 309 308 309 300 281 289 297 287 293 239 240 234 229 235
95 354 309 295 353 347 301 288 285 252 234 231 221 228 258 271 288 302 318 319 322 326 330 331 333 330 329 328 328 327 324 318 315 313 311 311 312 312 312 299 284 278 289 291 313 236 224 225 232
26 249 32 242 319 272 294 291 319 357 201 214 208 240 259 262 292 304 309 314 317 319 330 331 330 329 330 328 326 326 322 316 312 313 310 308 308 306 307 307 300 270 280 284 288 331 217 221 221
233 53 357 314 17 291 38 281 308 279 217 203 217 241 256 260 279 297 315 323 315 317 324 326 325 325 328 326 323 322 322 313 309 307 307 306 305 303 303 307 299 294 275 278 276 292 298 231 213
190 356 251 269 337 353 309 65 270 96 257 244 239 243 238 261 283 308 321 320 312 316 320 323 322 322 324 322 322 318 318 310 307 306 306 307 304 301 300 301 299 290 283 271 275 280 283 257 213
295 311 103 38 68 20 257 133 279 207 213 215 231 217 229 267 307 313 313 323 320 318 321 323 322 323 322 319 316 311 315 307 304 303 303 303 301 300 297 298 299 287 290 273 266 278 270 298 244
30 46 341 352 3 234 330 318 248 240 219 197 201 229 258 303 313 314 320 323 320 322 324 327 327 321 319 316 312 315 309 304 300 301 302 302 301 298 297 298 296 289 279 282 276 273 269 275 285
18 135 149 244 281 283 318 241 251 234 204 205 235 253 263 305 326 316 315 322 324 326 329 328 327 322 320 321 321 317 313 309 305 304 304 297 294 292 294 295 293 287 279 276 274 279 273 268 277
170 83 155 99 72 31 234 283 296 240 258 189 212 218 256 313 319 312 321 328 329 332 332 330 326 326 325 326 320 317 314 311 304 306 305 300 297 295 295 292 290 284 280 274 272 274 268 269 275
144 164 78 14 345 288 277 271 235 271 236 240 223 243 275 310 316 312 323 324 327 332 335 332 331 330 328 329 323 317 316 317 314 310 307 304 303 298 293 293 291 288 281 277 272 277 265 267 265
97 78 43 117 159 197 292 256 222 226 203 203 225 267 304 316 315 313 320 323 329 335 339 337 335 334 332 324 317 316 322 323 313 310 309 303 293 292 295 299 296 288 278 270 270 271 269 265 259
314 201 163 137 239 237 179 265 256 253 220 214 252 307 306 324 320 315 320 323 333 339 340 339 337 337 331 325 321 322 323 324 318 308 303 302 306 304 305 300 296 289 284 274 269 274 272 262 254